This is the latest recevied weather packets stored in our database for station/object KI4BIY. If no packets are shown the sender has not sent any weather packets the latest 1 day(s).
| Time | Temp. | Humidity | Pressure | Rain* | Wind** | Luminosity | Snow |
|---|---|---|---|---|---|---|---|
| 1778016511 | 17.78° C | 99% | 1006.7 hPa | 0 mm | 0.89 m/s, 218° | 24 W/m² | - |
| 1778016208 | 17.78° C | 99% | 1007 hPa | 0 mm | 0.45 m/s, 266° | 25 W/m² | - |
| 1778015904 | 17.78° C | 99% | 1007.1 hPa | 0 mm | 0.89 m/s, 171° | 23 W/m² | - |
| 1778015602 | 17.78° C | 99% | 1007.2 hPa | 0 mm | 0.89 m/s, 226° | 16 W/m² | - |
| 1778015298 | 17.78° C | 99% | 1007.3 hPa | 0 mm | 0.45 m/s, 213° | 16 W/m² | - |
| 1778014995 | 17.78° C | 99% | 1007.2 hPa | 0 mm | 0.45 m/s, 192° | 18 W/m² | - |
| 1778014692 | 17.78° C | 99% | 1007.3 hPa | 0 mm | 0.89 m/s, 167° | 25 W/m² | - |
| 1778014390 | 17.78° C | 99% | 1007.5 hPa | 0 mm | 0.45 m/s, 242° | 24 W/m² | - |
| 1778014087 | 17.78° C | 99% | 1007.5 hPa | 0 mm | 0.45 m/s, 263° | 28 W/m² | - |
| 1778013784 | 17.78° C | 99% | 1007.3 hPa | 0 mm | 0.89 m/s, 213° | 29 W/m² | - |
| 1778013481 | 17.78° C | 99% | 1007.2 hPa | 0 mm | 0.45 m/s, 218° | 33 W/m² | - |
| 1778013178 | 17.78° C | 99% | 1007.3 hPa | 0 mm | 0.89 m/s, 194° | 30 W/m² | - |
| 1778012874 | 17.78° C | 99% | 1007.2 hPa | 0 mm | 0.89 m/s, 175° | 34 W/m² | - |
| 1778012571 | 17.78° C | 99% | 1007.3 hPa | 0 mm | 0 m/s | 33 W/m² | - |
| 1778012267 | 17.78° C | 99% | 1007 hPa | 0 mm | 0.45 m/s, 188° | 41 W/m² | - |
| 1778011965 | 17.78° C | 99% | 1007.4 hPa | 0 mm | 0 m/s | 55 W/m² | - |
| 1778011663 | 17.78° C | 99% | 1007.3 hPa | 1.27 mm | 0.89 m/s, 201° | 78 W/m² | - |
| 1778011360 | 17.78° C | 99% | 1007.4 hPa | 1.27 mm | 0.45 m/s, 233° | 92 W/m² | - |
| 1778011055 | 17.78° C | 99% | 1007.4 hPa | 0 mm | 0.45 m/s, 244° | 98 W/m² | - |
| 1778010753 | 17.78° C | 99% | 1007.4 hPa | 0 mm | 0.89 m/s, 157° | 88 W/m² | - |
| 1778010450 | 17.22° C | 99% | 1007.5 hPa | 0 mm | 0.45 m/s, 181° | 122 W/m² | - |
| 1778010146 | 17.22° C | 99% | 1007.5 hPa | 0 mm | 0.89 m/s, 214° | 87 W/m² | - |
| 1778009842 | 17.22° C | 99% | 1007.5 hPa | 0 mm | 0.45 m/s, 238° | 113 W/m² | - |
| 1778009540 | 17.22° C | 99% | 1007.6 hPa | 0 mm | 0.45 m/s, 253° | 69 W/m² | - |
| 1778009238 | 17.22° C | 99% | 1007.5 hPa | 0 mm | 0.45 m/s, 237° | 46 W/m² | - |
* Rain latest hour (hover to see other rain measurements)
** Current wind speed in m/s (hover to see current wind gust speed)